Location: *
(50.3194°N, 7.1067°E)
Time: 11:47:48
(UTC+00:00)

Cosmos 2227 Rocket - Pass Details

Date: 22 September 2019
Orbit: 837 x 847 km, 71.0° (Epoch: 15 October)

Event Time Altitude Azimuth Distance (km) Brightness Sun altitude
Rises 18:03:02 0° 170° (S) 3,383 5.2 -6.0°
Reaches altitude 10° 18:05:49 10° 158° (SSE) 2,455 4.3 -6.4°
Maximum altitude 18:10:24 26° 103° (ESE) 1,600 3.1 -7.2°
Drops below altitude 10° 18:15:00 10° 49° (NE) 2,475 4.3 -7.9°
Sets 18:17:48 0° 37° (NE) 3,416 5.1 -8.3°
